Location: Alsip
(41.6689°N, 87.7387°W)
Time: 14:51:41
(UTC+00:00)

CZ-2D R/B - Pass Details

Date: 14 July 2020
Orbit: 792 x 844 km, 98.7° (Epoch: 13 August)

Event Time Altitude Azimuth Distance (km) Brightness Sun altitude
Rises 09:06:08 0° 355° (N) 3,349 6.0 -13.1°
Reaches altitude 10° 09:09:28 10° 334° (NNW) 2,423 4.8 -12.7°
Maximum altitude 09:12:22 15° 301° (WNW) 2,096 4.1 -12.3°
Drops below altitude 10° 09:15:17 10° 267° (W) 2,434 4.2 -11.9°
Enters shadow 09:15:44 - 264° (W) 2,533 4.2 -11.8°
